Chadron, NE

2:54 PM MDT on March 27, 2017 (GMT -0600)
Chadron Municipal

Weather History for KCDR - February, 2013

Change the Weather History Date:

Thursday, February 28, 2013

  Actual Average Record
Temperature  
Mean Temperature 32 °F 31 °F  
Max Temperature 47 °F 46 °F 74 °F (1972)
Min Temperature 17 °F 16 °F -25 °F (1962)
Degree Days  
Heating Degree Days 33 34  
Month to date heating degree days 958 1053  
Since 1 July heating degree days 4896 5252  
Cooling Degree Days 0 0  
Month to date cooling degree days 0 0  
Year to date cooling degree days 0 0  
Moisture  
Dew Point 18 °F    
Average Humidity 56    
Maximum Humidity 84    
Minimum Humidity 28    
Precipitation  
Precipitation 0.00 in 0.03 in 0.35 in (1958)
Month to date precipitation 0.24 0.61  
Year to date precipitation 0.72 0.97  
Sea Level Pressure  
Sea Level Pressure 30.28 in    
Wind  
Wind Speed 9 mph (WNW)    
Max Wind Speed 23 mph    
Max Gust Speed 31 mph    
Visibility 10 miles    
Events      
T = Trace of Precipitation, MM = Missing Value Source: NWS Daily Summary

Daily Weather History Graph

Daily Weather History Graph

Search for Another Location

Airport or City:

Trip Planner

Search our weather history database for the weather conditions in past years. The results will help you decide how hot, cold, wet, or windy it might be!

Date:

Astronomy

Feb. 28, 2013 Rise Set
Actual Time 6:29 AM MST 5:41 PM MST
Civil Twilight 6:00 AM MST 6:09 PM MST
Nautical Twilight 5:28 AM MST 6:42 PM MST
Astronomical Twilight 4:55 AM MST 7:15 PM MST
Moon 9:17 PM MST (2/28) 7:34 AM MST (2/28)
Length of Visible Light 12h 08m
Length of Day
11h 11m
Waning Gibbous, 90% of the Moon is Illuminated
Feb 28
Waning Gibbous
Mar 4
Last Quarter
Mar 11
New
Mar 19
First Quarter
Mar 27
Full

Hourly Weather History & Observations

Time (MST) Temp. Windchill Dew Point Humidity Pressure Visibility Wind Dir Wind Speed Gust Speed Precip Events Conditions
12:53 AM 21.9 °F 12.5 °F 16.0 °F 78% 30.31 in 10.0 mi WSW 8.1 mph - N/A   Clear
1:53 AM 21.9 °F 13.4 °F 15.1 °F 75% 30.31 in 10.0 mi West 6.9 mph - N/A   Overcast
2:53 AM 19.9 °F 14.9 °F 14.0 °F 78% 30.29 in 10.0 mi SW 3.5 mph - N/A   Clear
3:53 AM 18.0 °F 12.7 °F 14.0 °F 84% 30.31 in 10.0 mi WSW 3.5 mph - N/A   Clear
4:53 AM 18.0 °F 8.7 °F 14.0 °F 84% 30.31 in 10.0 mi WSW 6.9 mph - N/A   Clear
5:53 AM 19.0 °F 13.9 °F 12.9 °F 77% 30.32 in 10.0 mi SW 3.5 mph - N/A   Scattered Clouds
7:53 AM 26.1 °F 18.4 °F 16.0 °F 66% 30.34 in 10.0 mi WSW 6.9 mph - N/A   Overcast
8:53 AM 28.9 °F 20.4 °F 18.0 °F 64% 30.32 in 10.0 mi West 9.2 mph - N/A   Overcast
9:53 AM 35.1 °F 25.9 °F 19.0 °F 52% 30.32 in 10.0 mi WNW 13.8 mph - N/A   Overcast
10:53 AM 39.0 °F 32.3 °F 21.0 °F 49% 30.30 in 10.0 mi NNW 10.4 mph - N/A   Scattered Clouds
11:53 AM 42.1 °F 35.2 °F 21.0 °F 43% 30.27 in 10.0 mi NNW 12.7 mph 20.7 mph N/A   Scattered Clouds
1:23 PM 42.8 °F 38.0 °F 21.2 °F 42% 30.13 in 10.0 mi NE 8.1 mph - N/A   Overcast
1:53 PM 45.0 °F 38.2 °F 17.1 °F 33% 30.23 in 10.0 mi NW 15.0 mph 25.3 mph N/A   Mostly Cloudy
2:05 PM 46.4 °F 39.2 °F 17.6 °F 32% 30.13 in 10.0 mi WNW 18.4 mph 26.5 mph N/A   Mostly Cloudy
3:53 PM 44.1 °F 36.5 °F 14.0 °F 30% 30.24 in 10.0 mi NNW 17.3 mph 28.8 mph N/A   Partly Cloudy
4:53 PM 41.0 °F 32.8 °F 16.0 °F 36% 30.25 in 10.0 mi NW 16.1 mph 21.9 mph N/A   Overcast
5:53 PM 39.0 °F 31.8 °F 18.0 °F 43% 30.27 in 10.0 mi NW 11.5 mph 20.7 mph N/A   Overcast
6:53 PM 37.0 °F 31.6 °F 21.0 °F 52% 30.29 in 10.0 mi NW 6.9 mph - N/A   Overcast
7:53 PM 37.0 °F 31.6 °F 21.9 °F 54% 30.29 in 10.0 mi NW 6.9 mph - N/A   Overcast
8:53 PM 34.0 °F 27.2 °F 23.0 °F 64% 30.29 in 10.0 mi WNW 8.1 mph - N/A   Overcast
9:53 PM 30.9 °F 27.5 °F 21.9 °F 69% 30.30 in 10.0 mi WNW 3.5 mph - N/A   Scattered Clouds
10:53 PM 28.9 °F 21.1 °F 21.9 °F 75% 30.32 in 10.0 mi NW 8.1 mph - N/A   Overcast
11:53 PM 28.9 °F - 23.0 °F 78% 30.32 in 10.0 mi Calm Calm - N/A   Partly Cloudy